Location: Dehesa de la Cepeda
(40.6574°N, 4.3013°W)
Time: 09:42:04
(UTC+00:00)

Alouette 2 Rocket - Pass Details

Date: 05 July 2020
Orbit: 502 x 2650 km, 79.8° (Epoch: 08 August)

Event Time Altitude Azimuth Distance (km) Brightness Sun altitude
Rises 21:55:09 0° 343° (NNW) 2,693 8.2 -18.1°
Reaches altitude 10° 21:57:04 10° 339° (NNW) 1,887 7.2 -18.3°
Maximum altitude 22:01:00 58° 260° (W) 804 4.2 -18.7°
Enters shadow 22:03:57 24° 190° (S) 1,607 5.3 -19.0°
